Theta_e
299 299 300 300 300 300 296 291 281 294 298 285 286 281 284 288 286 288 287 287 285 282 283 281 281 282 286 291 290 284 286 283 278 282 289 294 293 290 290 280 281 285 284 284
299 299 300 300 300 300 291 286 285 293 295 279 281 284 285 286 285 285 286 285 286 286 282 278 283 284 289 290 288 285 286 283 278 280 284 288 289 290 292 289 288 283 280 285
299 299 299 300 300 299 293 286 278 284 287 287 283 282 282 283 289 287 288 286 287 284 282 284 281 283 288 290 289 296 292 284 281 277 281 285 282 286 289 286 284 285 285 288
299 299 299 299 300 300 293 285 281 285 273 282 283 284 284 282 282 288 288 284 284 283 280 281 281 284 285 288 291 290 287 280 283 284 285 285 284 284 285 284 287 285 288 287
298 298 299 299 299 299 290 283 283 285 283 285 284 284 283 282 284 285 284 284 286 286 282 282 281 285 286 285 289 288 289 280 283 280 283 283 282 284 285 286 287 287 288 288
297 298 299 299 299 298 290 289 289 287 283 283 283 283 283 284 286 287 288 287 286 284 286 289 290 290 289 288 286 285 285 283 280 277 282 282 278 283 285 286 288 288 284 289
298 298 299 299 299 298 291 292 291 284 278 282 282 284 285 284 285 284 287 289 286 290 295 293 290 289 288 288 287 288 283 282 281 277 280 272 283 290 290 288 289 292 296 297
298 299 299 299 299 299 293 294 288 288 280 284 284 285 285 286 287 285 286 289 291 293 289 279 279 279 281 283 286 286 287 283 279 277 277 281 285 289 291 290 290 297 295 297
298 299 299 299 299 299 294 293 294 289 282 279 286 284 285 282 281 283 286 292 294 290 282 277 274 273 279 279 282 289 287 285 281 278 275 271 284 292 294 293 284 296 297 296
298 299 299 299 299 299 294 291 294 291 284 286 286 280 283 287 286 283 286 287 288 290 283 274 274 276 283 278 279 281 281 280 278 277 275 281 290 294 296 281 284 296 297 297
298 298 299 299 299 299 295 290 294 291 286 287 289 289 285 286 286 280 287 285 287 286 280 276 279 278 282 282 284 283 281 277 276 278 273 274 294 294 287 292 294 295 296 297
298 298 298 298 298 299 299 288 294 296 289 286 293 293 293 291 289 286 288 286 287 287 284 285 284 280 282 283 278 287 281 284 281 280 280 293 296 294 298 296 294 294 294 296
298 298 298 297 299 299 298 290 291 292 288 285 286 286 292 295 293 294 284 287 290 287 290 285 285 282 286 279 282 284 287 291 286 287 291 292 296 298 298 295 294 295 297 297
298 298 299 298 298 299 299 293 292 290 290 280 284 294 290 295 295 293 293 291 292 291 288 283 283 281 286 282 284 284 288 290 287 288 292 295 296 297 297 297 296 296 301 300
298 298 299 299 299 299 297 295 294 294 288 281 284 291 294 296 295 293 292 291 289 288 286 284 284 287 286 287 286 284 291 289 286 286 293 292 294 296 298 296 298 300 300 294
298 298 299 299 299 300 295 287 294 296 295 287 279 291 292 295 295 293 292 292 289 289 288 287 288 292 288 281 281 289 292 293 294 291 297 296 296 298 299 299 297 295 293 292
299 299 299 300 300 296 290 287 293 298 296 285 281 282 289 292 292 293 292 293 292 289 288 286 287 287 289 284 280 288 291 293 293 295 295 294 296 295 299 296 293 291 288 288
300 300 299 300 300 298 292 294 300 299 291 288 281 280 286 294 288 287 293 289 290 290 289 288 287 288 287 282 289 291 293 293 293 293 297 297 297 298 299 297 293 288 285 283
301 300 300 298 294 287 291 299 300 298 291 283 283 279 278 293 290 291 290 290 284 289 285 286 286 283 281 287 289 289 292 293 294 296 296 296 296 295 297 297 292 286 283 281
300 296 287 282 288 299 298 292 288 286 287 289 283 285 278 289 287 287 285 286 282 276 283 288 281 281 288 289 289 288 289 290 291 289 289 291 291 292 293 293 293 286 282 280
291 285 286 292 299 293 287 283 282 284 282 285 286 286 282 290 283 282 284 280 281 277 281 281 280 281 284 288 287 288 286 287 288 288 289 289 288 288 290 288 285 282 280 278
292 294 296 295 289 285 283 281 282 281 279 285 284 285 288 287 291 284 283 278 281 275 285 282 278 280 283 284 284 286 283 283 284 285 285 285 284 286 284 282 279 278 277 276
297 292 287 286 284 279 277 275 279 276 282 285 284 284 284 286 287 284 282 278 275 283 273 276 278 280 282 282 282 283 283 281 281 281 281 281 281 282 281 279 278 277 275 275
287 284 281 282 278 278 280 280 282 285 285 284 285 281 281 281 281 283 278 277 283 278 274 274 277 279 279 281 281 280 279 279 278 278 278 278 277 277 277 276 276 274 273 274
283 282 277 278 281 284 284 285 285 285 284 284 283 283 282 280 279 281 279 279 276 276 271 276 278 279 278 279 279 278 278 277 276 274 271 272 274 274 273 274 274 274 273 272
281 279 280 282 281 280 282 283 282 284 285 285 283 283 280 273 277 278 276 275 271 271 276 276 276 278 278 277 277 277 275 271 269 268 270 269 269 271 271 272 272 272 271 270
278 276 279 281 279 278 279 281 281 284 284 283 283 279 275 280 275 275 277 271 272 273 274 275 275 275 275 278 276 275 276 273 270 268 269 271 272 271 271 269 270 270 270 269
Wind_Speed
13 13 13 11 8 7 1 2 4 4 1 6 4 10 6 8 19 22 19 19 1 8 12 11 9 10 7 11 7 4 2 1 5 7 18 2 4 3 9 7 8 6 7 11
13 13 13 11 7 4 1 2 5 6 6 3 9 6 16 18 20 22 18 13 4 6 8 6 6 11 13 9 8 3 3 4 5 8 7 5 4 6 12 17 9 16 7 8
14 14 13 11 9 6 2 2 4 2 2 2 8 8 11 16 15 21 20 16 6 6 6 7 7 13 11 11 6 5 5 1 4 7 13 13 12 17 4 5 3 7 9 21
15 15 14 11 11 9 3 2 4 5 4 5 9 9 7 14 8 12 10 6 7 7 10 10 8 9 10 11 13 4 4 6 8 15 19 19 19 22 18 14 5 5 7 13
15 12 13 13 13 10 3 3 3 4 5 14 6 7 5 15 15 5 8 10 13 9 9 10 4 7 5 2 9 6 3 5 6 14 16 21 21 23 20 17 15 9 14 16
14 13 14 13 13 9 2 3 5 4 4 8 8 5 8 9 13 9 7 11 10 9 5 4 3 4 6 6 3 3 1 2 4 17 14 19 18 12 16 18 15 10 14 17
15 15 14 13 14 11 4 2 3 4 6 7 8 11 7 7 15 12 6 6 2 1 3 6 4 8 11 11 12 9 5 3 2 8 5 14 14 13 17 17 15 10 9 11
15 16 13 11 11 11 3 3 4 3 4 5 7 9 11 11 7 13 4 8 5 5 2 3 5 4 5 12 18 15 13 6 2 5 6 11 15 4 8 5 6 12 8 11
15 14 13 12 11 12 5 4 3 2 4 5 5 3 6 8 5 6 6 7 5 1 3 3 0 4 4 5 9 11 15 11 8 3 4 5 3 8 12 6 2 8 9 11
15 15 14 14 12 13 5 4 8 3 3 6 4 1 2 3 3 5 4 7 5 3 2 1 3 5 6 4 3 2 11 9 13 7 5 8 10 6 5 2 3 3 4 5
15 15 15 15 14 12 8 4 5 3 3 6 8 7 6 3 1 1 5 5 4 1 3 3 4 3 4 6 9 5 9 9 6 4 2 9 7 4 1 3 3 3 3 4
17 17 16 17 17 15 13 3 4 4 6 5 4 6 7 7 8 4 0 2 3 2 3 3 2 3 3 5 4 4 2 1 4 8 7 2 3 2 2 4 1 2 4 7
19 20 20 20 19 18 13 4 3 2 2 5 7 9 12 13 9 5 4 3 4 3 4 2 4 4 2 3 4 7 6 3 2 5 5 6 7 9 3 2 2 4 6 3
20 20 19 19 20 19 17 6 4 3 1 3 4 3 4 8 9 9 6 9 5 3 2 2 3 4 2 4 6 4 5 1 4 5 0 1 7 4 7 7 8 6 6 8
20 21 21 20 19 19 10 4 4 4 4 3 4 5 8 6 7 11 10 9 4 2 2 2 3 3 3 4 4 3 4 3 4 2 5 4 12 13 10 10 3 6 9 9
23 23 21 19 18 16 5 4 6 6 4 3 3 3 5 7 7 9 8 7 4 4 2 2 3 4 3 3 3 3 5 7 8 4 5 13 8 6 8 11 12 12 13 11
22 23 21 18 20 9 6 4 1 15 8 2 4 4 5 12 9 1 2 4 3 4 2 4 3 3 2 2 5 11 14 14 14 12 11 5 4 4 6 12 14 15 14 13
23 24 21 19 21 11 7 1 2 11 5 3 3 5 3 5 4 3 3 3 2 3 3 2 3 2 4 4 11 11 12 10 8 8 8 5 8 12 9 12 12 13 11 11
20 26 21 7 4 3 3 10 8 2 3 5 4 3 3 2 2 1 1 4 2 4 5 4 4 4 5 7 6 8 12 9 9 9 9 9 10 9 10 12 10 12 10 10
29 12 4 3 4 16 14 4 6 2 3 3 4 3 3 3 2 1 1 2 3 2 6 3 3 3 10 12 12 12 14 15 15 13 13 11 11 9 10 8 7 10 10 10
3 4 3 3 21 4 2 4 4 4 3 5 5 7 3 2 3 2 3 2 0 1 5 5 3 2 6 11 12 11 13 15 14 12 11 12 10 9 7 8 10 10 10 10
6 8 7 4 3 3 5 5 4 4 6 5 4 4 6 1 4 2 2 2 0 5 1 2 1 3 9 11 12 12 12 12 13 13 12 12 12 10 9 9 10 10 12 11
8 5 3 4 3 5 6 7 3 3 3 3 2 3 3 3 3 2 1 2 5 0 2 2 3 5 8 10 10 12 12 11 11 11 10 9 10 10 8 9 9 10 11 11
3 4 7 4 5 4 3 1 3 2 3 3 5 2 3 2 3 3 3 6 2 2 1 3 3 7 6 7 8 8 10 9 8 11 9 8 9 9 9 8 7 8 10 10
3 2 4 2 1 3 1 1 3 4 2 4 3 4 3 1 3 3 2 3 4 3 2 2 3 4 4 6 7 6 6 6 7 6 5 6 7 8 9 8 9 10 11 11
4 7 3 2 4 3 3 4 3 5 3 2 4 3 3 3 3 3 5 3 3 2 3 2 3 5 5 4 4 4 4 6 4 3 4 5 6 8 8 10 10 10 11 12
4 3 5 3 6 5 3 3 3 3 2 2 2 4 4 1 2 4 4 3 1 2 2 1 2 3 5 4 4 5 4 4 3 3 4 5 6 7 9 11 10 12 12 13
Wind_Direction
282 289 290 289 292 291 264 262 263 265 119 193 202 234 232 240 275 286 286 290 322 299 317 315 321 316 314 29 36 347 77 249 291 282 291 167 165 233 319 223 237 224 227 250
281 280 283 276 262 234 186 247 268 268 113 246 236 254 258 252 261 268 271 272 219 251 269 296 299 311 320 3 8 8 0 335 344 330 333 343 10 351 331 327 241 239 244 254
282 277 276 270 246 239 153 279 288 281 133 240 273 286 279 290 288 261 262 281 266 284 282 284 285 304 310 328 342 113 66 99 242 261 281 312 305 306 267 208 297 338 299 305
277 272 265 258 254 233 157 206 254 249 276 239 244 246 259 282 283 307 276 229 248 262 282 291 280 279 276 279 284 209 154 214 239 263 276 288 288 289 289 280 261 194 249 290
269 274 263 249 247 227 177 244 231 322 307 274 261 308 253 262 275 229 333 327 304 325 249 260 314 5 20 349 340 358 350 250 263 274 277 278 279 279 280 275 278 271 293 280
265 254 257 255 248 208 218 195 264 304 272 306 261 219 289 315 325 290 256 217 231 274 303 352 307 268 265 251 253 325 299 250 260 259 265 286 278 261 271 277 279 277 267 272
262 257 261 263 242 206 166 231 271 209 255 215 270 282 262 314 302 288 331 339 286 4 350 330 299 256 251 242 240 214 214 153 261 272 315 264 262 269 258 247 262 290 20 18
259 254 253 254 241 202 174 179 218 277 264 275 303 325 346 320 287 272 255 263 277 140 135 29 303 296 263 240 234 225 211 208 232 278 219 285 293 4 340 263 139 36 16 17
254 253 250 251 243 228 208 223 160 214 321 258 319 41 353 301 310 314 271 277 135 216 112 79 248 259 324 310 329 237 202 193 209 219 252 241 237 19 333 319 91 346 20 2
252 250 248 253 250 230 197 234 199 248 276 261 279 236 287 297 37 312 330 350 273 83 84 234 224 243 251 268 263 275 193 189 215 224 247 281 293 325 278 356 206 261 329 337
250 248 247 248 253 242 204 231 218 199 238 272 274 291 292 289 204 327 355 332 40 311 203 196 237 245 315 280 276 251 183 171 186 181 182 261 322 287 353 173 47 338 350 354
248 245 240 248 251 248 211 227 213 202 246 264 335 279 268 259 247 172 259 268 344 314 307 25 329 298 277 286 288 339 234 152 177 169 205 87 27 2 298 111 123 358 318 305
245 242 241 247 241 234 215 194 207 185 255 293 249 258 251 243 241 209 181 218 199 212 146 12 308 285 279 310 316 3 345 320 275 11 352 358 40 327 121 137 238 248 263 287
246 243 243 237 236 228 211 200 200 147 279 258 282 235 244 232 221 226 200 229 254 243 136 219 250 249 303 270 272 280 239 253 273 242 90 116 208 240 290 241 225 265 65 73
239 247 243 232 226 218 207 197 207 189 192 283 292 274 239 234 201 207 216 238 227 179 260 191 247 254 292 291 272 260 34 334 24 353 51 301 281 277 247 257 150 85 89 64
237 233 232 219 206 195 157 212 209 200 171 271 275 299 286 272 210 209 207 199 199 176 198 221 245 242 328 290 281 296 34 349 264 262 217 220 261 318 11 104 99 85 79 72
228 213 214 205 190 176 176 185 219 175 135 213 275 273 252 228 221 155 227 209 182 142 178 217 235 270 184 244 267 279 292 294 293 294 295 357 30 339 18 111 104 95 87 75
212 196 192 189 180 162 219 239 86 150 109 171 246 261 278 154 152 204 161 150 142 164 197 216 223 240 198 245 243 265 274 292 296 313 39 25 15 22 74 138 120 94 89 90
172 161 162 145 167 139 203 130 131 72 155 185 216 217 247 137 170 159 124 147 173 169 211 212 157 219 222 235 284 348 4 3 5 354 13 43 41 10 16 64 92 102 103 99
136 125 98 153 187 131 100 102 175 220 223 253 227 206 252 140 130 174 150 189 219 205 224 172 170 251 34 36 39 28 15 15 22 29 19 9 13 359 11 60 110 119 116 114
99 119 126 108 144 86 158 149 170 172 215 211 218 198 180 234 124 211 190 196 253 248 254 154 210 122 27 25 29 38 28 12 18 21 14 11 26 7 354 93 93 101 108 110
150 113 96 117 108 157 177 169 166 194 217 197 181 190 176 153 92 102 290 163 100 251 305 150 182 55 25 24 14 16 38 24 9 18 12 15 19 22 65 82 89 95 102 107
118 84 113 154 165 172 197 159 181 184 200 174 134 72 121 41 65 86 127 164 228 289 51 128 58 39 29 19 15 359 23 21 10 15 21 21 31 35 68 91 90 104 106 110
111 149 135 181 181 216 163 198 134 255 115 112 109 94 127 135 98 146 211 237 272 255 245 96 58 32 19 21 10 7 11 18 22 20 21 31 48 53 55 68 93 106 108 112
72 57 93 87 103 59 75 359 66 2 327 82 68 50 89 77 138 204 229 229 229 32 86 70 49 19 17 16 15 20 17 31 46 30 21 32 48 62 64 64 79 92 98 102
46 30 77 105 94 54 43 58 61 3 334 22 61 133 160 201 180 168 217 227 54 55 60 54 7 13 20 18 21 8 58 53 40 33 47 44 50 70 74 70 72 79 93 97
50 41 2 34 68 61 44 40 16 312 358 102 145 160 207 224 155 80 26 38 81 113 96 66 40 24 5 8 34 29 63 71 60 57 62 71 66 70 79 80 73 79 80 82